Location: Passo di Treia
(43.2833°N, 13.3333°E)
Time: 07:33:42
(UTC+00:00)

Envisat - Pass Details

Date: 09 December 2019
Orbit: 764 x 766 km, 98.1° (Epoch: 24 January)

Event Time Altitude Azimuth Distance (km) Brightness Sun altitude
Rises 16:32:27 0° 151° (SSE) 3,220 6.2 -10.9°
Reaches altitude 10° 16:34:47 10° 146° (SSE) 2,298 5.3 -11.3°
Maximum altitude 16:39:41 52° 72° (ENE) 952 3.1 -12.1°
Drops below altitude 10° 16:44:37 10° 357° (N) 2,314 5.3 -12.9°
Sets 16:46:59 0° 352° (N) 3,244 6.1 -13.4°
